Taunton, MA

5:24 AM EDT on August 20, 2019 (GMT -0400)
Taunton Municipal

Weather History for KTAN - July, 2019

Change the Weather History Date:

Wednesday, July 17, 2019

  Actual Average Record
Temperature  
Mean Temperature 83 °F -  
Max Temperature 91 °F 84 °F 98 °F (1999)
Min Temperature 75 °F 61 °F 44 °F (1954)
Cooling Degree Days 18    
Growing Degree Days 33 (Base 50)    
Moisture  
Dew Point 72 °F    
Average Humidity 78    
Maximum Humidity 91    
Minimum Humidity 59    
Precipitation  
Precipitation 0.28 in - - ()
Sea Level Pressure  
Sea Level Pressure 29.91 in    
Wind  
Wind Speed 6 mph (SSW)    
Max Wind Speed 15 mph    
Max Gust Speed 24 mph    
Visibility 9 miles    
Events Rain , Thunderstorm    
Averages and records for this station are not official NWS values.
T = Trace of Precipitation, MM = Missing Value Source: NWS Daily Summary

Daily Weather History Graph

Daily Weather History Graph

Search for Another Location

Airport or City:

Astronomy

Jul. 17, 2019 Rise Set
Actual Time 5:23 AM EDT 8:16 PM EDT
Civil Twilight 4:50 AM EDT 8:49 PM EDT
Nautical Twilight 4:08 AM EDT 9:30 PM EDT
Astronomical Twilight 3:20 AM EDT 10:19 PM EDT
Moon 9:02 PM EDT (7/17) 5:53 AM EDT (7/17)
Length of Visible Light 15h 58m
Length of Day
14h 52m
Waxing Gibbous, 99% of the Moon is Illuminated
Jul 17
Waxing Gibbous
Jul 24
Last Quarter
Jul 31
New
Aug 7
First Quarter
Aug 15
Full

Hourly Weather History & Observations

Time (EDT) Temp. Heat Index Dew Point Humidity Pressure Visibility Wind Dir Wind Speed Gust Speed Precip Events Conditions
12:52 AM 75.9 °F - 66.0 °F 71% 29.97 in 10.0 mi SW 8.1 mph - N/A   Clear
1:52 AM 75.9 °F - 68.0 °F 76% 29.96 in 10.0 mi SSW 4.6 mph - N/A   Clear
2:52 AM 75.9 °F - 69.1 °F 79% 29.94 in 10.0 mi Variable 5.8 mph - N/A   Clear
3:52 AM 75.0 °F - 70.0 °F 84% 29.94 in 10.0 mi SW 5.8 mph - N/A   Clear
4:52 AM 75.0 °F - 70.0 °F 84% 29.94 in 10.0 mi SW 6.9 mph - N/A   Clear
5:52 AM 75.0 °F - 70.0 °F 84% 29.95 in 10.0 mi SW 5.8 mph - N/A   Partly Cloudy
6:52 AM 77.0 °F - 71.1 °F 82% 29.95 in 10.0 mi SW 5.8 mph - N/A   Clear
7:52 AM 80.1 °F 83.6 °F 71.1 °F 74% 29.95 in 10.0 mi SSW 8.1 mph - N/A   Clear
8:52 AM 82.0 °F 86.7 °F 72.0 °F 71% 29.94 in 10.0 mi SSW 8.1 mph - N/A   Mostly Cloudy
9:52 AM 82.0 °F 87.4 °F 73.0 °F 74% 29.95 in 10.0 mi SSW 6.9 mph - N/A   Overcast
10:52 AM 84.9 °F 91.4 °F 73.0 °F 67% 29.94 in 10.0 mi South 10.4 mph 16.1 mph N/A   Scattered Clouds
11:52 AM 84.0 °F 89.0 °F 71.1 °F 65% 29.93 in 10.0 mi South 10.4 mph 19.6 mph N/A   Partly Cloudy
12:52 PM 87.1 °F 94.5 °F 73.0 °F 63% 29.91 in 10.0 mi SSW 15.0 mph 20.7 mph N/A   Clear
1:52 PM 89.1 °F 98.0 °F 73.9 °F 61% 29.89 in 10.0 mi SSW 10.4 mph - N/A   Clear
2:52 PM 91.9 °F 103.9 °F 75.9 °F 59% 29.87 in 10.0 mi Variable 6.9 mph - N/A   Clear
3:52 PM 90.0 °F 100.2 °F 75.0 °F 61% 29.85 in 10.0 mi SSW 9.2 mph 16.1 mph N/A   Clear
4:24 PM 88.0 °F 95.6 °F 73.0 °F 61% 29.84 in 10.0 mi SSW 11.5 mph 18.4 mph N/A Thunderstorm Thunderstorm
4:39 PM 90.0 °F 99.0 °F 73.9 °F 59% 29.84 in 10.0 mi SSW 10.4 mph 21.9 mph N/A Thunderstorm Clear
4:52 PM 88.0 °F 95.6 °F 73.0 °F 61% 29.82 in 10.0 mi SSW 11.5 mph 24.2 mph N/A   Clear
5:52 PM 84.0 °F 91.2 °F 73.9 °F 72% 29.85 in 10.0 mi SSW 3.5 mph - 0.00 in   Partly Cloudy
6:19 PM 82.9 °F 89.4 °F 73.9 °F 74% 29.88 in 10.0 mi NW 9.2 mph - N/A Thunderstorm Thunderstorm
6:40 PM 77.0 °F - 71.1 °F 82% 29.89 in 1.2 mi NNW 4.6 mph 19.6 mph 0.09 in Rain , Thunderstorm Heavy Thunderstorms and Rain
6:48 PM 75.2 °F - 71.6 °F 89% 29.90 in 3.0 mi Calm Calm - 0.09 in Rain , Thunderstorm Light Thunderstorms and Rain
6:50 PM 75.2 °F - 71.6 °F 89% 29.90 in 7.0 mi Calm Calm - 0.09 in Rain Light Rain
6:52 PM 75.9 °F - 72.0 °F 87% 29.90 in 8.0 mi Calm Calm - 0.09 in Rain , Thunderstorm Light Rain
7:21 PM 75.9 °F - 73.0 °F 91% 29.91 in 5.0 mi Calm Calm - 0.03 in Rain , Thunderstorm Thunderstorms and Rain
7:36 PM 75.9 °F - 72.0 °F 87% 29.92 in 5.0 mi Calm Calm - 0.06 in Rain , Thunderstorm Rain
7:52 PM 75.0 °F - 72.0 °F 90% 29.93 in 4.0 mi South 3.5 mph - 0.10 in Rain Rain
8:02 PM 75.0 °F - 72.0 °F 90% 29.92 in 5.0 mi South 4.6 mph - 0.02 in Rain , Thunderstorm Rain
8:17 PM 75.0 °F - 72.0 °F 90% 29.90 in 5.0 mi SE 5.8 mph - 0.07 in Rain Rain
8:52 PM 75.0 °F - 72.0 °F 90% 29.87 in 10.0 mi Calm Calm - 0.08 in   Partly Cloudy
9:52 PM 75.0 °F - 72.0 °F 90% 29.89 in 10.0 mi West 3.5 mph - N/A   Clear
10:16 PM 75.0 °F - 72.0 °F 90% 29.91 in 8.0 mi Calm Calm - N/A   Scattered Clouds
10:52 PM 75.0 °F - 72.0 °F 90% 29.91 in 9.0 mi Calm Calm - N/A   Scattered Clouds
11:52 PM 75.0 °F - 72.0 °F 90% 29.94 in 10.0 mi Variable 6.9 mph - 0.01 in   Mostly Cloudy